Weather History for Fallon NAS, NV

Change the Weather History Date:

Monday, July 1, 2013

  Actual Average Record
Temperature  
Mean Temperature 89 °F -  
Max Temperature 108 °F 86 °F 108 °F (2013)
Min Temperature 70 °F 49 °F 37 °F (1976)
Cooling Degree Days 24    
Growing Degree Days 39 (Base 50)    
Moisture  
Dew Point 40 °F    
Average Humidity 20    
Maximum Humidity 31    
Minimum Humidity 7    
Precipitation  
Precipitation 0.00 in - - ()
Sea Level Pressure  
Sea Level Pressure 29.96 in    
Wind  
Wind Speed 7 mph (WSW)    
Max Wind Speed 25 mph    
Max Gust Speed 33 mph    
Visibility 10 miles    
Events Rain , Thunderstorm    
Averages and records for this station are not official NWS values.
T = Trace of Precipitation, MM = Missing Value Source: NWS Daily Summary

Daily Weather History Graph

Daily Weather History Graph

Search for Another Location

Airport:

Trip Planner

Search our weather history database for the weather conditions in past years. The results will help you decide how hot, cold, wet, or windy it might be!

Date:

Astronomy

Jul. 01, 2013 Rise Set
Actual Time 5:31 AM PDT 8:25 PM PDT
Civil Twilight 4:59 AM PDT 8:57 PM PDT
Nautical Twilight 4:18 AM PDT 9:38 PM PDT
Astronomical Twilight 3:31 AM PDT 10:25 PM PDT
Moon 1:02 AM PDT (7/1) 2:46 PM PDT (7/1)
Length of Visible Light 15h 58m
Length of Day
14h 53m
Waning Crescent, 34% of the Moon is Illuminated
Jul 1
Waning Crescent
Jul 8
New
Jul 15
First Quarter
Jul 22
Full
Jul 29
Last Quarter

Hourly Weather History & Observations

Time (PDT) Temp. Dew Point Humidity Pressure Visibility Wind Dir Wind Speed Gust Speed Precip Events Conditions
12:56 AM 81.0 °F 36.0 °F 20% 29.93 in 10.0 mi South 9.2 mph - N/A   Clear
1:56 AM 86.0 °F 37.0 °F 18% 29.89 in 10.0 mi West 10.4 mph - 0.00 in   Partly Cloudy
2:56 AM 79.0 °F 39.9 °F 25% 29.90 in 10.0 mi Variable 6.9 mph - N/A   Clear
3:56 AM 80.1 °F 39.9 °F 24% 29.92 in 10.0 mi Calm Calm - N/A   Clear
4:56 AM 71.1 °F 39.0 °F 31% 29.93 in 10.0 mi South 3.5 mph - N/A   Clear
5:56 AM 70.0 °F 37.0 °F 30% 29.94 in 10.0 mi South 5.8 mph - N/A   Clear
6:20 AM 73.4 °F 37.4 °F 27% 30.03 in 10.0 mi SE 3.5 mph - N/A   Scattered Clouds
6:56 AM 75.9 °F 41.0 °F 29% 29.95 in 10.0 mi Calm Calm - N/A   Scattered Clouds
7:56 AM 84.0 °F 42.1 °F 23% 29.96 in 10.0 mi Calm Calm - N/A   Scattered Clouds
8:56 AM 89.1 °F 39.9 °F 18% 29.96 in 10.0 mi West 8.1 mph - N/A   Partly Cloudy
9:56 AM 91.0 °F 42.1 °F 18% 29.96 in 10.0 mi Variable 3.5 mph - N/A   Partly Cloudy
10:56 AM 96.1 °F 39.0 °F 14% 29.96 in 10.0 mi North 4.6 mph - N/A   Scattered Clouds
11:56 AM 100.9 °F 32.0 °F 9% 29.94 in 10.0 mi NNW 8.1 mph - N/A   Scattered Clouds
12:56 PM 102.0 °F 34.0 °F 9% 29.93 in 10.0 mi Variable 5.8 mph - N/A   Mostly Cloudy
1:56 PM 104.0 °F 34.0 °F 9% 29.91 in 10.0 mi Calm Calm - N/A   Mostly Cloudy
2:56 PM 105.1 °F 33.1 °F 8% 29.90 in 10.0 mi Variable 5.8 mph - N/A   Mostly Cloudy
3:56 PM 107.1 °F 32.0 °F 7% 29.88 in 10.0 mi North 9.2 mph - N/A   Mostly Cloudy
4:56 PM 108.0 °F 32.0 °F 7% 29.87 in 10.0 mi North 10.4 mph - N/A   Mostly Cloudy
5:56 PM 99.0 °F 39.9 °F 13% 29.88 in 10.0 mi WSW 25.3 mph 31.1 mph N/A   Overcast
6:17 PM 96.8 °F 39.2 °F 14% 30.00 in 10.0 mi SSW 10.4 mph 26.5 mph 0.00 in Rain , Thunderstorm Light Thunderstorms and Rain
6:56 PM 89.1 °F 52.0 °F 28% 29.97 in 8.0 mi South 20.7 mph 33.4 mph 0.00 in Rain , Thunderstorm Light Thunderstorms and Rain
7:17 PM 89.6 °F 48.2 °F 24% 30.05 in 10.0 mi SSW 19.6 mph - 0.00 in Rain Light Rain
7:27 PM 89.6 °F 48.2 °F 24% 30.05 in 10.0 mi SW 12.7 mph - 0.00 in   Overcast
7:56 PM 90.0 °F 45.0 °F 21% 29.95 in 10.0 mi WSW 10.4 mph - 0.00 in   Mostly Cloudy
8:56 PM 88.0 °F 44.1 °F 22% 29.97 in 10.0 mi WNW 8.1 mph - N/A   Mostly Cloudy
9:56 PM 84.9 °F 44.1 °F 24% 29.99 in 10.0 mi North 4.6 mph - N/A   Mostly Cloudy
10:56 PM 88.0 °F 44.1 °F 22% 29.99 in 8.0 mi NNE 8.1 mph - N/A   Mostly Cloudy
11:26 PM 84.2 °F 46.4 °F 27% 30.09 in 6.0 mi SSW 4.6 mph - N/A   Haze
11:56 PM 84.9 °F 46.9 °F 27% 30.00 in 8.0 mi Calm Calm - N/A   Clear